Location: Lhota
(50.0887°N, 14.0116°E)
Time: 00:07:32
(UTC+00:00)

Ariane Rocket - Pass Details

Date: 19 May 2025
Orbit: 755 x 764 km, 98.5° (Epoch: 15 June)

Event Time Altitude Azimuth Distance (km) Brightness Sun altitude
Exits shadow 19:36:55 - 132° (SE) 2,434 4.9 -6.8°
Reaches altitude 10° 19:37:18 10° 131° (SE) 2,293 4.8 -6.9°
Maximum altitude 19:41:55 37° 65° (ENE) 1,170 3.8 -7.4°
Drops below altitude 10° 19:46:34 10° 359° (N) 2,312 6.2 -7.9°
Sets 19:49:01 0° 351° (N) 3,243 7.2 -8.2°
